Time,TemperatureF,DewpointF,PressureIn,WindDirection,WindDirectionDegrees,WindSpeedMPH,WindSpeedGustMPH,Humidity,HourlyPrecipIn,Conditions,Clouds,dailyrainin,SolarRadiationWatts/m^2,SoftwareType,DateUTC
2013-02-23 00:00:00,33.5,26.8,30.13,SSE,160,5.0,15.0,76,0.00,,---,0.00,0.00,VWS V14.01,2013-02-23 05:00:00,
2013-02-23 00:27:00,33.9,27.5,30.11,SSE,158,7.0,13.0,77,0.00,,---,0.00,0.00,VWS V14.01,2013-02-23 05:27:00,
2013-02-23 00:30:00,33.9,27.5,30.11,SSE,158,7.0,13.0,77,0.00,,---,0.00,0.00,VWS V14.01,2013-02-23 05:30:00,
2013-02-23 00:57:00,34.2,27.8,30.12,South,180,9.0,14.0,77,0.00,,---,0.00,0.00,VWS V14.01,2013-02-23 05:57:00,
2013-02-23 01:00:00,34.2,27.8,30.12,South,180,9.0,14.0,77,0.00,,---,0.00,0.00,VWS V14.01,2013-02-23 06:00:00,
2013-02-23 01:27:00,34.4,27.6,30.11,SE,141,6.0,13.0,76,0.00,,---,0.00,0.00,VWS V14.01,2013-02-23 06:27:00,
2013-02-23 01:30:00,34.4,27.6,30.11,SE,141,6.0,13.0,76,0.00,,---,0.00,0.00,VWS V14.01,2013-02-23 06:30:00,
2013-02-23 01:57:00,34.4,28.0,30.11,SSE,154,11.0,14.0,77,0.00,,---,0.00,0.00,VWS V14.01,2013-02-23 06:57:00,
2013-02-23 02:00:00,34.4,28.0,30.11,SSE,154,11.0,20.0,77,0.00,,---,0.00,0.00,VWS V14.01,2013-02-23 07:00:00,
2013-02-23 02:27:00,33.3,29.3,30.10,SSE,161,4.0,16.0,85,0.00,,---,0.00,0.00,VWS V14.01,2013-02-23 07:27:00,
2013-02-23 02:30:00,33.3,29.3,30.10,SSE,161,4.0,16.0,85,0.00,,---,0.00,0.00,VWS V14.01,2013-02-23 07:30:00,
2013-02-23 02:57:00,33.2,28.9,30.10,SSE,150,5.0,11.0,84,0.00,,---,0.00,0.00,VWS V14.01,2013-02-23 07:57:00,
2013-02-23 03:00:00,33.2,28.9,30.10,SSE,150,5.0,11.0,84,0.00,,---,0.00,0.00,VWS V14.01,2013-02-23 08:00:00,
2013-02-23 03:27:00,33.3,29.0,30.10,SE,138,0.0,9.0,84,0.00,,---,0.00,0.00,VWS V14.01,2013-02-23 08:27:00,
2013-02-23 03:30:00,33.3,29.0,30.10,SE,138,0.0,9.0,84,0.00,,---,0.00,0.00,VWS V14.01,2013-02-23 08:30:00,
2013-02-23 03:57:00,33.5,28.6,30.09,SSE,165,8.0,11.0,82,0.00,,---,0.00,0.00,VWS V14.01,2013-02-23 08:57:00,
2013-02-23 04:00:00,33.5,28.6,30.09,SSE,165,8.0,11.0,82,0.00,,---,0.00,0.00,VWS V14.01,2013-02-23 09:00:00,
2013-02-23 04:27:00,33.7,28.5,30.08,SSE,153,0.0,10.0,81,0.00,,---,0.00,0.00,VWS V14.01,2013-02-23 09:27:00,
2013-02-23 04:30:00,33.7,28.5,30.08,SSE,153,0.0,10.0,81,0.00,,---,0.00,0.00,VWS V14.01,2013-02-23 09:30:00,
2013-02-23 04:57:00,33.7,28.8,30.07,SSE,153,4.0,12.0,82,0.00,,---,0.00,0.00,VWS V14.01,2013-02-23 09:57:00,
2013-02-23 05:00:00,33.7,28.8,30.07,SSE,153,4.0,12.0,82,0.00,,---,0.00,0.00,VWS V14.01,2013-02-23 10:00:00,
2013-02-23 05:27:00,33.9,28.7,30.07,SSE,158,5.0,10.0,81,0.00,,---,0.00,0.00,VWS V14.01,2013-02-23 10:27:00,
2013-02-23 05:30:00,33.9,28.7,30.07,SSE,158,5.0,10.0,81,0.00,,---,0.00,0.00,VWS V14.01,2013-02-23 10:30:00,
2013-02-23 05:57:00,34.3,28.8,30.07,ESE,122,7.0,10.0,80,0.00,,---,0.00,0.00,VWS V14.01,2013-02-23 10:57:00,
2013-02-23 06:00:00,34.3,28.8,30.07,ESE,122,7.0,10.0,80,0.00,,---,0.00,0.00,VWS V14.01,2013-02-23 11:00:00,
2013-02-23 06:27:00,34.3,28.8,30.06,South,183,3.0,11.0,80,0.00,,---,0.00,0.00,VWS V14.01,2013-02-23 11:27:00,
2013-02-23 06:30:00,34.3,28.8,30.06,South,183,3.0,11.0,80,0.00,,---,0.00,0.00,VWS V14.01,2013-02-23 11:30:00,
2013-02-23 06:57:00,34.4,28.9,30.06,SSE,153,4.0,14.0,80,0.00,,---,0.00,0.00,VWS V14.01,2013-02-23 11:57:00,
2013-02-23 07:00:00,34.4,28.9,30.06,SSE,153,4.0,14.0,80,0.00,,---,0.00,0.00,VWS V14.01,2013-02-23 12:00:00,
2013-02-23 07:27:00,34.5,29.3,30.06,SSE,156,8.0,9.0,81,0.00,,---,0.00,7.00,VWS V14.01,2013-02-23 12:27:00,
2013-02-23 07:30:00,34.5,29.3,30.06,SSE,156,8.0,9.0,81,0.00,,---,0.00,7.00,VWS V14.01,2013-02-23 12:30:00,
2013-02-23 07:57:00,34.7,29.5,30.06,South,178,4.0,10.0,81,0.00,,---,0.00,12.00,VWS V14.01,2013-02-23 12:57:00,
2013-02-23 08:00:00,34.7,29.5,30.06,South,178,4.0,10.0,81,0.00,,---,0.00,12.00,VWS V14.01,2013-02-23 13:00:00,
2013-02-23 08:27:00,34.9,30.0,30.05,SSE,150,6.0,10.0,82,0.00,,---,0.00,18.00,VWS V14.01,2013-02-23 13:27:00,
2013-02-23 08:30:00,34.9,30.0,30.05,SSE,150,6.0,10.0,82,0.00,,---,0.00,18.00,VWS V14.01,2013-02-23 13:30:00,
2013-02-23 08:57:00,35.0,30.1,30.06,SSE,168,2.0,9.0,82,0.00,,---,0.00,19.00,VWS V14.01,2013-02-23 13:57:00,
2013-02-23 09:00:00,35.0,30.1,30.06,SSE,168,2.0,9.0,82,0.00,,---,0.00,19.00,VWS V14.01,2013-02-23 14:00:00,
2013-02-23 09:27:00,34.7,30.7,30.06,South,171,0.0,7.0,85,0.00,,---,0.00,49.00,VWS V14.01,2013-02-23 14:27:00,
2013-02-23 09:30:00,34.7,30.7,30.06,South,171,0.0,7.0,85,0.00,,---,0.00,49.00,VWS V14.01,2013-02-23 14:30:00,
2013-02-23 09:57:00,34.6,31.4,30.04,South,170,1.0,5.0,88,0.00,,---,0.00,90.00,VWS V14.01,2013-02-23 14:57:00,
2013-02-23 10:00:00,34.6,31.4,30.04,South,170,1.0,5.0,88,0.00,,---,0.00,90.00,VWS V14.01,2013-02-23 15:00:00,
2013-02-23 10:27:00,34.4,32.0,30.03,SSE,168,2.0,6.0,91,0.00,,---,0.00,98.00,VWS V14.01,2013-02-23 15:27:00,
2013-02-23 10:30:00,34.4,32.0,30.03,SSE,168,2.0,6.0,91,0.00,,---,0.00,98.00,VWS V14.01,2013-02-23 15:30:00,
2013-02-23 10:57:00,34.8,32.7,30.04,SSE,151,0.0,8.0,92,0.01,,---,0.01,125.00,VWS V14.01,2013-02-23 15:57:00,
2013-02-23 11:00:00,34.8,32.7,30.04,SSE,151,0.0,8.0,92,0.01,,---,0.01,125.00,VWS V14.01,2013-02-23 16:00:00,
2013-02-23 11:27:00,35.8,33.4,30.03,SSE,152,0.0,4.0,91,0.02,,---,0.02,185.00,VWS V14.01,2013-02-23 16:27:00,
2013-02-23 11:30:00,35.8,33.4,30.03,SSE,152,0.0,4.0,91,0.02,,---,0.02,185.00,VWS V14.01,2013-02-23 16:30:00,
2013-02-23 11:57:00,37.3,33.5,30.02,South,171,4.0,7.0,86,0.03,,---,0.03,251.00,VWS V14.01,2013-02-23 16:57:00,
2013-02-23 12:00:00,37.3,33.5,30.02,South,171,4.0,7.0,86,0.03,,---,0.03,251.00,VWS V14.01,2013-02-23 17:00:00,
2013-02-23 12:27:00,38.4,33.4,30.01,SSE,155,1.0,11.0,82,0.03,,---,0.04,202.00,VWS V14.01,2013-02-23 17:27:00,
2013-02-23 12:30:00,38.4,33.4,30.01,SSE,155,1.0,11.0,82,0.03,,---,0.04,202.00,VWS V14.01,2013-02-23 17:30:00,
2013-02-23 12:57:00,38.7,33.1,30.00,SSE,162,4.0,16.0,80,0.03,,---,0.05,163.00,VWS V14.01,2013-02-23 17:57:00,
2013-02-23 13:00:00,38.7,33.1,30.00,SSE,162,4.0,16.0,80,0.03,,---,0.05,163.00,VWS V14.01,2013-02-23 18:00:00,
2013-02-23 13:27:00,38.8,33.2,29.98,South,169,9.0,14.0,80,0.03,,---,0.06,144.00,VWS V14.01,2013-02-23 18:27:00,
2013-02-23 13:30:00,38.8,33.2,29.98,South,169,9.0,14.0,80,0.03,,---,0.06,144.00,VWS V14.01,2013-02-23 18:30:00,
2013-02-23 13:57:00,38.8,33.5,29.98,South,180,2.0,14.0,81,0.02,,---,0.06,139.00,VWS V14.01,2013-02-23 18:57:00,
2013-02-23 14:00:00,38.8,33.5,29.98,South,180,2.0,14.0,81,0.02,,---,0.06,139.00,VWS V14.01,2013-02-23 19:00:00,
2013-02-23 14:27:00,39.1,33.5,29.97,SSE,147,2.0,13.0,80,0.01,,---,0.06,113.00,VWS V14.01,2013-02-23 19:27:00,
2013-02-23 14:30:00,39.1,33.5,29.97,SSE,147,2.0,13.0,80,0.01,,---,0.06,113.00,VWS V14.01,2013-02-23 19:30:00,
2013-02-23 14:57:00,39.4,33.8,29.96,SSE,157,4.0,9.0,80,0.00,,---,0.06,120.00,VWS V14.01,2013-02-23 19:57:00,
2013-02-23 15:00:00,39.4,33.8,29.96,SSE,157,4.0,9.0,80,0.00,,---,0.06,120.00,VWS V14.01,2013-02-23 20:00:00,
2013-02-23 15:27:00,39.8,34.1,29.95,SSE,154,4.0,12.0,80,0.00,,---,0.06,162.00,VWS V14.01,2013-02-23 20:27:00,
2013-02-23 15:30:00,39.8,34.1,29.95,SSE,154,4.0,12.0,80,0.00,,---,0.06,162.00,VWS V14.01,2013-02-23 20:30:00,
2013-02-23 15:57:00,39.8,33.8,29.96,SSW,208,4.0,11.0,79,0.00,,---,0.06,44.00,VWS V14.01,2013-02-23 20:57:00,
2013-02-23 16:00:00,39.8,33.8,29.96,SSW,208,4.0,11.0,79,0.00,,---,0.06,44.00,VWS V14.01,2013-02-23 21:00:00,
2013-02-23 16:27:00,40.0,34.3,29.95,SSE,166,2.0,7.0,80,0.00,,---,0.06,67.00,VWS V14.01,2013-02-23 21:27:00,
2013-02-23 16:30:00,40.0,34.3,29.95,SSE,166,2.0,7.0,80,0.00,,---,0.06,67.00,VWS V14.01,2013-02-23 21:30:00,
2013-02-23 16:57:00,39.9,34.2,29.95,SSW,196,0.0,7.0,80,0.00,,---,0.06,35.00,VWS V14.01,2013-02-23 21:57:00,
2013-02-23 17:00:00,39.9,34.2,29.95,SSW,196,0.0,7.0,80,0.00,,---,0.06,35.00,VWS V14.01,2013-02-23 22:00:00,
2013-02-23 17:27:00,39.6,34.0,29.95,SSE,158,2.0,7.0,80,0.00,,---,0.06,11.00,VWS V14.01,2013-02-23 22:27:00,
2013-02-23 17:30:00,39.6,34.0,29.95,SSE,158,2.0,7.0,80,0.00,,---,0.06,11.00,VWS V14.01,2013-02-23 22:30:00,
2013-02-23 17:57:00,39.1,34.1,29.95,SSE,158,0.0,4.0,82,0.00,,---,0.06,0.00,VWS V14.01,2013-02-23 22:57:00,
2013-02-23 18:00:00,39.1,34.1,29.95,SSE,158,0.0,4.0,82,0.00,,---,0.06,0.00,VWS V14.01,2013-02-23 23:00:00,
2013-02-23 18:27:00,37.7,32.4,29.96,WNW,290,2.0,8.0,81,0.00,,---,0.06,0.00,VWS V14.01,2013-02-23 23:27:00,
2013-02-23 18:30:00,37.7,32.4,29.96,WNW,290,2.0,8.0,81,0.00,,---,0.06,0.00,VWS V14.01,2013-02-23 23:30:00,
2013-02-23 18:57:00,35.9,30.6,29.97,WSW,248,5.0,8.0,81,0.00,,---,0.06,0.00,VWS V14.01,2013-02-23 23:57:00,
2013-02-23 19:00:00,35.9,30.6,29.97,WSW,248,5.0,8.0,81,0.00,,---,0.06,0.00,VWS V14.01,2013-02-24 00:00:00,
2013-02-23 19:27:00,34.9,30.3,29.99,West,271,1.0,7.0,83,0.00,,---,0.06,0.00,VWS V14.01,2013-02-24 00:27:00,
2013-02-23 19:30:00,34.9,30.3,29.99,West,271,1.0,7.0,83,0.00,,---,0.06,0.00,VWS V14.01,2013-02-24 00:30:00,
2013-02-23 19:57:00,34.1,29.5,29.98,West,281,4.0,8.0,83,0.00,,---,0.06,0.00,VWS V14.01,2013-02-24 00:57:00,
2013-02-23 20:00:00,34.1,29.5,29.98,West,281,4.0,8.0,83,0.00,,---,0.06,0.00,VWS V14.01,2013-02-24 01:00:00,
2013-02-23 20:27:00,33.6,29.0,29.98,NW,311,3.0,8.0,83,0.00,,---,0.06,0.00,VWS V14.01,2013-02-24 01:27:00,
2013-02-23 20:30:00,33.6,29.0,29.98,NW,311,3.0,8.0,83,0.00,,---,0.06,0.00,VWS V14.01,2013-02-24 01:30:00,
2013-02-23 20:57:00,33.2,28.0,29.98,West,271,1.0,11.0,81,0.00,,---,0.06,0.00,VWS V14.01,2013-02-24 01:57:00,
2013-02-23 21:00:00,33.2,28.0,29.98,West,271,1.0,11.0,81,0.00,,---,0.06,0.00,VWS V14.01,2013-02-24 02:00:00,
2013-02-23 21:27:00,32.9,27.4,29.99,WNW,292,6.0,11.0,80,0.00,,---,0.06,0.00,VWS V14.01,2013-02-24 02:27:00,
2013-02-23 21:30:00,32.9,27.4,29.99,WNW,292,6.0,11.0,80,0.00,,---,0.06,0.00,VWS V14.01,2013-02-24 02:30:00,
2013-02-23 21:57:00,32.7,27.2,29.99,West,263,4.0,9.0,80,0.00,,---,0.06,0.00,VWS V14.01,2013-02-24 02:57:00,
2013-02-23 22:00:00,32.7,27.2,29.99,West,263,4.0,9.0,80,0.00,,---,0.06,0.00,VWS V14.01,2013-02-24 03:00:00,
2013-02-23 22:27:00,32.7,27.2,29.97,WSW,257,5.0,9.0,80,0.00,,---,0.06,0.00,VWS V14.01,2013-02-24 03:27:00,
2013-02-23 22:30:00,32.7,27.2,29.97,WSW,257,5.0,9.0,80,0.00,,---,0.06,0.00,VWS V14.01,2013-02-24 03:30:00,
2013-02-23 22:57:00,32.6,26.8,29.96,SW,232,6.0,8.0,79,0.00,,---,0.06,0.00,VWS V14.01,2013-02-24 03:57:00,
2013-02-23 23:00:00,32.6,26.8,29.96,SW,232,6.0,8.0,79,0.00,,---,0.06,0.00,VWS V14.01,2013-02-24 04:00:00,
2013-02-23 23:27:00,32.6,26.8,29.95,WSW,254,3.0,8.0,79,0.00,,---,0.06,0.00,VWS V14.01,2013-02-24 04:27:00,
2013-02-23 23:30:00,32.6,26.8,29.95,WSW,254,3.0,8.0,79,0.00,,---,0.06,0.00,VWS V14.01,2013-02-24 04:30:00,
2013-02-23 23:57:00,32.6,26.8,29.96,WSW,237,3.0,7.0,79,0.00,,---,0.06,0.00,VWS V14.01,2013-02-24 04:57:00,